H1 CPF 2 NER 2021 11 10 9 314 01 glonass131 H2 1301901 9131 39155 2021 11 10 0 0 0 2021 11 13 23 45 0 900 1 1 0 0 0 1 H9 10 0 59528 0.00000 0 -1640292.431 22932839.972 11154610.611 10 0 59528 900.00000 0 -1802631.434 21400127.533 13851181.185 10 0 59528 1800.00000 0 -2158243.574 19579590.567 16280181.990 10 0 59528 2700.00000 0 -2736019.719 17525930.020 18394701.686 10 0 59528 3600.00000 0 -3553884.145 15300391.187 20153869.791 10 0 59528 4500.00000 0 -4617818.823 12968349.695 21523634.117 10 0 59528 5400.00000 0 -5921391.887 10596742.539 22477411.894 10 0 59528 6300.00000 0 -7445811.246 8251448.644 22996602.997 10 0 59528 7200.00000 0 -9160502.966 5994725.518 23070955.736 10 0 59528 8100.00000 0 -11024192.873 3882806.413 22698778.023 10 0 59528 9000.00000 0 -12986449.287 1963756.157 21886989.033 10 0 59528 9900.00000 0 -14989625.666 275673.845 20651008.970 10 0 59528 10800.00000 0 -16971125.279 -1154683.264 19014487.176 10 0 59528 11700.00000 0 -18865896.076 -2312797.043 17008871.586 10 0 59528 12600.00000 0 -20609053.510 -3196768.668 14672825.458 10 0 59528 13500.00000 0 -22138522.855 -3817164.633 12051500.324 10 0 59528 14400.00000 0 -23397590.572 -4196333.738 9195677.138 10 0 59528 15300.00000 0 -24337256.929 -4367222.490 6160790.735 10 0 59528 16200.00000 0 -24918289.535 -4371737.968 3005855.579 10 0 59528 17100.00000 0 -25112889.172 -4258726.901 -207686.600 10 0 59528 18000.00000 0 -24905895.208 -4081656.771 -3417174.238 10 0 59528 18900.00000 0 -24295477.192 -3896098.192 -6559963.727 10 0 59528 19800.00000 0 -23293281.127 -3757117.119 -9574671.709 10 0 59528 20700.00000 0 -21924022.474 -3716689.736 -12402395.378 10 0 59528 21600.00000 0 -20224541.952 -3821252.425 -14987884.699 10 0 59528 22500.00000 0 -18242363.659 -4109493.428 -17280641.466 10 0 59528 23400.00000 0 -16033816.716 -4610482.388 -19235921.671 10 0 59528 24300.00000 0 -13661800.519 -5342219.155 -20815620.186 10 0 59528 25200.00000 0 -11193288.966 -6310664.833 -21989019.511 10 0 59528 26100.00000 0 -8696680.001 -7509296.925 -22733387.609 10 0 59528 27000.00000 0 -6239102.953 -8919207.568 -23034413.425 10 0 59528 27900.00000 0 -3883797.337 -10509740.389 -22886472.371 10 0 59528 28800.00000 0 -1687673.160 -12239638.278 -22292717.775 10 0 59528 29700.00000 0 300845.783 -14058652.693 -21264998.000 10 0 59528 30600.00000 0 2043606.826 -15909545.704 -19823602.509 10 0 59528 31500.00000 0 3514068.930 -17730399.505 -17996843.534 10 0 59528 32400.00000 0 4698145.570 -19457135.727 -15820483.128 10 0 59528 33300.00000 0 5594517.954 -21026138.407 -13337018.231 10 0 59528 34200.00000 0 6214408.898 -22376870.662 -10594838.987 10 0 59528 35100.00000 0 6580830.349 -23454375.945 -7647277.669 10 0 59528 36000.00000 0 6727339.320 -24211560.086 -4551567.368 10 0 59528 36900.00000 0 6696357.223 -24611159.880 -1367731.127 10 0 59528 37800.00000 0 6537125.307 -24627317.458 1842576.938 10 0 59528 38700.00000 0 6303383.605 -24246696.283 5017256.434 10 0 59528 39600.00000 0 6050871.570 -23469093.733 8094949.049 10 0 59528 40500.00000 0 5834755.510 -22307526.087 11016208.557 10 0 59528 41400.00000 0 5707090.355 -20787783.275 13724631.227 10 0 59528 42300.00000 0 5714421.434 -18947472.426 16167926.235 10 0 59528 43200.00000 0 5895625.858 -16834589.764 18298907.225 10 0 59528 44100.00000 0 6280083.088 -14505679.389 20076387.590 10 0 59528 45000.00000 0 6886250.654 -12023654.000 21465963.787 10 0 59528 45900.00000 0 7720704.617 -9455366.040 22440672.965 10 0 59528 46800.00000 0 8777685.443 -6869027.699 22981513.200 10 0 59528 47700.00000 0 10039169.612 -4331584.425 23077816.714 10 0 59528 48600.00000 0 11475465.969 -1906148.539 22727468.763 10 0 59528 49500.00000 0 13046314.530 350402.620 21936967.209 10 0 59528 50400.00000 0 14702444.756 2389565.647 20721320.223 10 0 59528 51300.00000 0 16387531.262 4172999.151 19103782.278 10 0 59528 52200.00000 0 18040468.041 5673886.688 17115431.242 10 0 59528 53100.00000 0 19597868.336 6877817.205 14794592.412 10 0 59528 54000.00000 0 20996687.064 7783145.301 12186118.227 10 0 59528 54900.00000 0 22176856.483 8400814.975 9340535.543 10 0 59528 55800.00000 0 23083824.058 8753652.919 6313075.406 10 0 59528 56700.00000 0 23670884.603 8875160.047 3162603.162 10 0 59528 57600.00000 0 23901206.481 8807851.540 -49530.569 10 0 59528 58500.00000 0 23749463.888 8601215.480 -3260695.188 10 0 59528 59400.00000 0 23203003.626 8309377.105 -6408216.986 10 0 59528 60300.00000 0 22262494.410 7988569.035 -9430621.815 10 0 59528 61200.00000 0 20942029.001 7694516.640 -12268857.067 10 0 59528 62100.00000 0 19268673.172 7479851.888 -14867466.845 10 0 59528 63000.00000 0 17281479.519 7391667.949 -17175695.183 10 0 59528 63900.00000 0 15030007.567 7469320.741 -19148493.706 10 0 59528 64800.00000 0 12572412.891 7742572.801 -20747412.551 10 0 59528 65700.00000 0 9973186.632 8230159.746 -21941356.213 10 0 59528 66600.00000 0 7300641.608 8938840.983 -22707189.088 10 0 59528 67500.00000 0 4624251.729 9862975.123 -23030179.175 10 0 59528 68400.00000 0 2011957.117 10984637.709 -22904272.026 10 0 59528 69300.00000 0 -472451.733 12274275.412 -22332190.729 10 0 59528 70200.00000 0 -2771761.575 13691867.877 -21325361.531 10 0 59528 71100.00000 0 -4837475.341 15188546.915 -19903668.137 10 0 59528 72000.00000 0 -6631574.653 16708603.468 -18095041.234 10 0 59528 72900.00000 0 -8127834.715 18191796.753 -15934892.865 10 0 59528 73800.00000 0 -9312639.650 19575867.705 -13465408.140 10 0 59528 74700.00000 0 -10185267.449 20799150.658 -10734709.414 10 0 59528 75600.00000 0 -10757636.160 21803173.687 -7795910.155 10 0 59528 76500.00000 0 -11053525.325 22535139.035 -4706077.618 10 0 59528 77400.00000 0 -11107308.352 22950180.481 -1525124.901 10 0 59528 78300.00000 0 -10962251.559 23013304.339 1685346.102 10 0 59528 79200.00000 0 -10668453.177 22700934.189 4863228.749 10 0 59528 80100.00000 0 -10280509.979 22001996.160 7947100.382 10 0 59528 81000.00000 0 -9855009.957 20918500.654 10877393.762 10 0 59528 81900.00000 0 -9447956.070 19465597.162 13597529.924 10 0 59528 82800.00000 0 -9112228.435 17671100.335 16054992.031 10 0 59528 83700.00000 0 -8895190.344 15574506.930 18202321.237 10 0 59528 84600.00000 0 -8836537.303 13225543.683 19998017.100 10 0 59528 85500.00000 0 -8966478.201 10682305.098 21407326.740 10 0 59529 0.00000 0 -9304324.082 8009056.680 22402908.852 10 0 59529 900.00000 0 -9857543.764 5273790.876 22965361.246 10 0 59529 1800.00000 0 -10621325.893 2545638.109 23083600.911 10 0 59529 2700.00000 0 -11578667.756 -107767.164 22755090.986 10 0 59529 3600.00000 0 -12700988.725 -2622854.981 21985908.077 10 0 59529 4500.00000 0 -13949245.368 -4942519.652 20790647.890 10 0 59529 5400.00000 0 -15275504.340 -7018252.221 19192169.072 10 0 59529 6300.00000 0 -16624910.057 -8811917.537 17221177.965 10 0 59529 7200.00000 0 -17937967.101 -10297101.717 14915659.935 10 0 59529 8100.00000 0 -19153043.587 -11459973.092 12320165.927 10 0 59529 9000.00000 0 -20208991.409 -12299619.491 9484965.898 10 0 59529 9900.00000 0 -21047773.291 -12827846.317 6465083.992 10 0 59529 10800.00000 0 -21616985.235 -13068442.655 3319233.110 10 0 59529 11700.00000 0 -21872166.318 -13055945.347 108669.263 10 0 59529 12600.00000 0 -21778795.978 -12833952.697 -3104011.480 10 0 59529 13500.00000 0 -21313891.672 -12453059.319 -6256108.904 10 0 59529 14400.00000 0 -20467136.492 -11968500.464 -9286061.613 10 0 59529 15300.00000 0 -19241486.415 -11437607.164 -12134670.627 10 0 59529 16200.00000 0 -17653229.336 -10917182.212 -14746277.422 10 0 59529 17100.00000 0 -15731491.780 -10460910.568 -17069871.224 10 0 59529 18000.00000 0 -13517213.321 -10116916.434 -19060101.843 10 0 59529 18900.00000 0 -11061631.847 -9925572.680 -20678176.749 10 0 59529 19800.00000 0 -8424343.815 -9917657.163 -21892623.907 10 0 59529 20700.00000 0 -5671022.064 -10112935.066 -22679904.979 10 0 59529 21600.00000 0 -2870887.932 -10519227.605 -23024867.200 10 0 59529 22500.00000 0 -94044.596 -11132006.189 -22921025.805 10 0 59529 23400.00000 0 2591216.026 -11934528.226 -22370672.638 10 0 59529 24300.00000 0 5121020.136 -12898507.474 -21384810.336 10 0 59529 25200.00000 0 7438324.292 -13985289.032 -19982914.953 10 0 59529 26100.00000 0 9495033.494 -15147477.683 -18192533.419 10 0 59529 27000.00000 0 11253738.641 -16330949.423 -16048725.293 10 0 59529 27900.00000 0 12689003.426 -17477160.155 -13593361.159 10 0 59529 28800.00000 0 13788149.895 -18525653.457 -10874292.693 10 0 59529 29700.00000 0 14551513.191 -19416661.536 -7944411.533 10 0 59529 30600.00000 0 14992158.234 -20093690.085 -4860615.960 10 0 59529 31500.00000 0 15135073.362 -20505978.952 -1682705.943 10 0 59529 32400.00000 0 15015877.569 -20610736.252 1527771.990 10 0 59529 33300.00000 0 14679097.775 -20375053.353 4708708.004 10 0 59529 34200.00000 0 14176089.918 -19777421.741 7798617.957 10 0 59529 35100.00000 0 13562691.905 -18808789.473 10737816.213 10 0 59529 36000.00000 0 12896706.933 -17473113.938 13469550.884 10 0 59529 36900.00000 0 12235322.205 -15787388.375 15941081.076 10 0 59529 37800.00000 0 11632570.209 -13781140.998 18104677.038 10 0 59529 38700.00000 0 11136937.677 -11495426.831 19918525.691 10 0 59529 39600.00000 0 10789221.021 -8981352.913 21347525.622 10 0 59529 40500.00000 0 10620716.962 -6298196.136 22363957.654 10 0 59529 41400.00000 0 10651823.359 -3511189.342 22948019.050 10 0 59529 42300.00000 0 10891108.743 -689064.826 23088211.533 10 0 59529 43200.00000 0 11334890.104 2098545.788 22781575.575 10 0 59529 44100.00000 0 11967337.943 4783750.229 22033765.723 10 0 59529 45000.00000 0 12761106.158 7302965.535 20858964.184 10 0 59529 45900.00000 0 13678462.772 9599314.400 19279632.552 10 0 59529 46800.00000 0 14672876.731 11624749.278 17326104.236 10 0 59529 47700.00000 0 15690996.625 13341816.026 15036023.102 10 0 59529 48600.00000 0 16674940.356 14724983.090 12453636.844 10 0 59529 49500.00000 0 17564800.841 15761479.686 9628956.598 10 0 59529 50400.00000 0 18301262.822 16451606.427 6616797.486 10 0 59529 51300.00000 0 18828220.070 16808503.946 3475717.659 10 0 59529 52200.00000 0 19095281.222 16857387.934 266876.061 10 0 59529 53100.00000 0 19060056.292 16634281.966 -2947168.347 10 0 59529 54000.00000 0 18690124.540 16184301.353 -6103691.448 10 0 59529 54900.00000 0 17964597.512 15559561.024 -9141047.180 10 0 59529 55800.00000 0 16875208.236 14816797.096 -11999892.651 10 0 59529 56700.00000 0 15426877.903 14014804.606 -14624369.007 10 0 59529 57600.00000 0 13637733.993 13211802.058 -16963212.750 10 0 59529 58500.00000 0 11538577.702 12462836.740 -18970773.734 10 0 59529 59400.00000 0 9171822.494 11817342.857 -20607918.408 10 0 59529 60300.00000 0 6589948.388 11316957.644 -21842799.640 10 0 59529 61200.00000 0 3853537.627 10993689.100 -22651477.594 10 0 59529 62100.00000 0 1028974.995 10868513.297 -23018379.756 10 0 59529 63000.00000 0 -1814089.906 10950460.333 -22936591.799 10 0 59529 63900.00000 0 -4605411.298 11236226.581 -22407974.766 10 0 59529 64800.00000 0 -7276834.840 11710328.100 -21443107.748 10 0 59529 65700.00000 0 -9764892.086 12345786.837 -20061058.810 10 0 59529 66600.00000 0 -12013194.154 13105318.626 -18288990.357 10 0 59529 67500.00000 0 -13974526.201 13942970.804 -16161608.274 10 0 59529 68400.00000 0 -15612557.398 14806138.670 -13720467.066 10 0 59529 69300.00000 0 -16903097.588 15637874.302 -11013145.864 10 0 59529 70200.00000 0 -17834851.204 16379389.587 -8092312.359 10 0 59529 71100.00000 0 -18409640.154 16972647.594 -5014693.555 10 0 59529 72000.00000 0 -18642089.481 17362933.361 -1839973.844 10 0 59529 72900.00000 0 -18558791.907 17501296.505 1370358.190 10 0 59529 73800.00000 0 -18196988.742 17346763.921 4554192.181 10 0 59529 74700.00000 0 -17602824.214 16868230.761 7649985.248 10 0 59529 75600.00000 0 -16829247.601 16045951.531 10597936.145 10 0 59529 76500.00000 0 -15933651.418 14872569.768 13341122.878 10 0 59529 77400.00000 0 -14975344.362 13353643.864 15826583.277 10 0 59529 78300.00000 0 -14012963.958 11507647.154 18006319.379 10 0 59529 79200.00000 0 -13101935.919 9365441.711 19838208.007 10 0 59529 80100.00000 0 -12292085.057 6969246.584 21286801.545 10 0 59529 81000.00000 0 -11625496.218 4371141.516 22324004.914 10 0 59529 81900.00000 0 -11134713.503 1631165.800 22929616.720 10 0 59529 82800.00000 0 -10841352.372 -1184911.530 23091724.642 10 0 59529 83700.00000 0 -10755182.605 -4008060.786 22806947.397 10 0 59529 84600.00000 0 -10873721.090 -6768600.535 22080517.925 10 0 59529 85500.00000 0 -11182352.775 -9398840.676 20926204.921 10 0 59530 0.00000 0 -11654976.536 -11835651.890 19366072.581 10 0 59530 900.00000 0 -12255151.343 -14022857.416 17430080.102 10 0 59530 1800.00000 0 -12937696.265 -15913344.886 15155528.517 10 0 59530 2700.00000 0 -13650679.986 -17470814.474 12586360.374 10 0 59530 3600.00000 0 -14337717.137 -18671086.110 9772325.702 10 0 59530 4500.00000 0 -14940475.785 -19502911.030 6768027.995 10 0 59530 5400.00000 0 -15401290.260 -19968251.791 3631867.778 10 0 59530 6300.00000 0 -15665768.064 -20082017.401 424903.839 10 0 59530 7200.00000 0 -15685278.888 -19871263.394 -2790345.216 10 0 59530 8100.00000 0 -15419217.979 -19373889.846 -5951134.743 10 0 59530 9000.00000 0 -14836945.171 -18636892.215 -8995737.451 10 0 59530 9900.00000 0 -13919314.516 -17714239.577 -11864669.990 10 0 59530 10800.00000 0 -12659726.861 -16664471.334 -14501876.554 10 0 59530 11700.00000 0 -11064658.398 -15548115.883 -16855844.141 10 0 59530 12600.00000 0 -9153641.011 -14425042.607 -18880625.597 10 0 59530 13500.00000 0 -6958694.052 -13351861.333 -20536748.905 10 0 59530 14400.00000 0 -4523230.998 -12379481.071 -21791993.914 10 0 59530 15300.00000 0 -1900487.198 -11550932.595 -22622020.811 10 0 59530 16200.00000 0 848464.703 -10899547.518 -23010838.258 10 0 59530 17100.00000 0 3657027.599 -10447570.632 -22951102.722 10 0 59530 18000.00000 0 6455623.244 -10205263.228 -22444244.255 10 0 59530 18900.00000 0 9174359.074 -10170533.673 -21500417.741 10 0 59530 19800.00000 0 11745706.886 -10329108.751 -20138282.166 10 0 59530 20700.00000 0 14107081.732 -10655236.195 -18384613.943 10 0 59530 21600.00000 0 16203214.374 -11112886.299 -16273763.458 10 0 59530 22500.00000 0 17988219.848 -11657399.643 -13846966.963 10 0 59530 23400.00000 0 19427277.875 -12237509.446 -11151528.524 10 0 59530 24300.00000 0 20497857.601 -12797651.750 -8239889.027 10 0 59530 25200.00000 0 21190438.413 -13280465.092 -5168601.056 10 0 59530 26100.00000 0 21508699.662 -13629373.925 -1997230.047 10 0 59530 27000.00000 0 21469174.291 -13791147.138 1212796.852 10 0 59530 27900.00000 0 21100383.410 -13718324.585 4399372.265 10 0 59530 28800.00000 0 20441490.099 -13371410.493 7500897.987 10 0 59530 29700.00000 0 19540530.203 -12720742.681 10457460.366 10 0 59530 30600.00000 0 18452294.891 -11747960.090 13211970.198 10 0 59530 31500.00000 0 17235953.527 -10447007.954 15711246.559 10 0 59530 32400.00000 0 15952515.639 -8824638.769 17907025.393 10 0 59530 33300.00000 0 14662236.856 -6900387.844 19756875.125 10 0 59530 34200.00000 0 13422075.690 -4706023.496 21225003.209 10 0 59530 35100.00000 0 12283305.731 -2284493.102 22282939.525 10 0 59530 36000.00000 0 11289381.381 311593.504 22910084.489 10 0 59530 36900.00000 0 10474145.083 3021883.012 23094111.810 10 0 59530 37800.00000 0 9860450.191 5780523.428 22831218.159 10 0 59530 38700.00000 0 9459256.953 8518644.729 22126214.230 10 0 59530 39600.00000 0 9269240.055 11166975.222 20992454.237 10 0 59530 40500.00000 0 9276925.349 13658487.505 19451603.399 10 0 59530 41400.00000 0 9457351.775 15930965.869 17533245.739 10 0 59530 42300.00000 0 9775232.650 17929389.204 15274337.425 10 0 59530 43200.00000 0 10186569.512 19608030.291 12718513.861 10 0 59530 44100.00000 0 10640652.231 20932183.196 9915261.749 10 0 59530 45000.00000 0 11082362.221 21879445.111 6918970.541 10 0 59530 45900.00000 0 11454681.887 22440497.295 3787880.546 10 0 59530 46800.00000 0 11701303.757 22619350.415 582947.682 10 0 59530 47700.00000 0 11769227.554 22433042.289 -2633352.585 10 0 59530 48600.00000 0 11611233.126 21910799.510 -5798257.860 10 0 59530 49500.00000 0 11188121.805 21092697.646 -8849962.307 10 0 59530 50400.00000 0 10470628.255 20027876.669 -11728844.648 10 0 59530 51300.00000 0 9440918.853 18772387.847 -14378654.439 10 0 59530 52200.00000 0 8093610.392 17386764.448 -16747631.242 10 0 59530 53100.00000 0 6436263.847 15933420.838 -18789532.713 10 0 59530 54000.00000 0 4489330.658 14473991.831 -20464549.953 10 0 59530 54900.00000 0 2285552.905 13066726.550 -21740091.146 10 0 59530 55800.00000 0 -131157.585 11764048.313 -22591417.638 10 0 59530 56700.00000 0 -2707313.799 10610384.372 -23002120.176 10 0 59530 57600.00000 0 -5381854.161 9640357.106 -22964426.653 10 0 59530 58500.00000 0 -8088464.456 8877412.247 -22479336.453 10 0 59530 59400.00000 0 -10758123.082 8332940.474 -21556580.207 10 0 59530 60300.00000 0 -13321762.718 8005927.238 -20214407.373 10 0 59530 61200.00000 0 -15712936.981 7883143.073 -18479207.514 10 0 59530 62100.00000 0 -17870381.208 7939863.514 -16384974.287 10 0 59530 63000.00000 0 -19740361.498 8141085.552 -13972624.113 10 0 59530 63900.00000 0 -21278715.461 8443186.773 -11289184.167 10 0 59530 64800.00000 0 -22452501.637 8795955.121 -8386866.510 10 0 59530 65700.00000 0 -23241191.170 9144902.098 -5322047.129 10 0 59530 66600.00000 0 -23637354.614 9433760.944 -2154170.233 10 0 59530 67500.00000 0 -23646817.903 9607064.112 1055400.859 10 0 59530 68400.00000 0 -23288283.470 9612691.702 4244564.230 10 0 59530 69300.00000 0 -22592434.511 9404284.179 7351668.933 10 0 59530 70200.00000 0 -21600561.447 8943418.840 10316691.570 10 0 59530 71100.00000 0 -20362768.924 8201459.555 13082378.446 10 0 59530 72000.00000 0 -18935838.560 7161003.051 15595332.613 10 0 59530 72900.00000 0 -17380836.209 5816861.660 17807026.589 10 0 59530 73800.00000 0 -15760562.597 4176541.360 19674722.921 10 0 59530 74700.00000 0 -14136952.185 2260194.555 21162286.428 10 0 59530 75600.00000 0 -12568526.938 100048.142 22240873.953 10 0 59530 76500.00000 0 -11108009.369 -2260671.366 22889489.366 10 0 59530 77400.00000 0 -9800192.715 -4769273.570 23095393.669 10 0 59530 78300.00000 0 -8680155.881 -7365539.979 22854362.329 10 0 59530 79200.00000 0 -7771896.870 -9983982.741 22170784.225 10 0 59530 80100.00000 0 -7087441.821 -12556335.513 21057599.091 10 0 59530 81000.00000 0 -6626467.459 -15014175.782 19536072.907 10 0 59530 81900.00000 0 -6376453.952 -17291571.800 17635413.403 10 0 59530 82800.00000 0 -6313363.347 -19327645.204 15392230.781 10 0 59530 83700.00000 0 -6402816.828 -21068943.078 12849851.693 10 0 59530 84600.00000 0 -6601722.876 -22471520.011 10057497.586 10 0 59530 85500.00000 0 -6860288.992 -23502641.861 7069341.654 10 0 59531 0.00000 0 -7124332.669 -24142038.110 3943461.822 10 0 59531 900.00000 0 -7337793.939 -24382648.447 740707.925 10 0 59531 1800.00000 0 -7445341.867 -24230829.372 -2476490.251 10 0 59531 2700.00000 0 -7394963.294 -23706011.502 -5645355.512 10 0 59531 3600.00000 0 -7140421.361 -22839819.856 -8704006.553 10 0 59531 4500.00000 0 -6643476.894 -21674694.107 -11592687.311 10 0 59531 5400.00000 0 -5875775.511 -20262067.192 -14254955.867 10 0 59531 6300.00000 0 -4820317.572 -18660180.098 -16638807.446 10 0 59531 7200.00000 0 -3472446.320 -16931626.564 -18697707.451 10 0 59531 8100.00000 0 -1840310.425 -15140733.113 -20391512.762 10 0 59531 9000.00000 0 55219.889 -13350886.719 -21687262.203 10 0 59531 9900.00000 0 2181180.156 -11621924.407 -22559820.133 10 0 59531 10800.00000 0 4493656.033 -10007695.779 -22992360.765 10 0 59531 11700.00000 0 6939396.155 -8553901.478 -22976684.314 10 0 59531 12600.00000 0 9457824.926 -7296298.160 -22513359.923 10 0 59531 13500.00000 0 11983370.054 -6259344.200 -21611693.966 10 0 59531 14400.00000 0 14448006.644 -5455341.125 -20289525.974 10 0 59531 15300.00000 0 16783910.884 -4884104.296 -18572857.866 10 0 59531 16200.00000 0 18926112.440 -4533173.729 -16495325.391 10 0 59531 17100.00000 0 20815035.216 -4378553.047 -14097523.561 10 0 59531 18000.00000 0 22398821.352 -4385942.441 -11426200.643 10 0 59531 18900.00000 0 23635342.984 -4512411.012 -8533337.429 10 0 59531 19800.00000 0 24493819.753 -4708435.787 -5475130.470 10 0 59531 20700.00000 0 24955976.726 -4920219.915 -2310899.566 10 0 59531 21600.00000 0 25016696.848 -5092191.412 898059.211 10 0 59531 22500.00000 0 24684142.990 -5169576.859 4089652.954 10 0 59531 23400.00000 0 23979346.609 -5100941.989 7202181.506 10 0 59531 24300.00000 0 22935281.888 -4840592.895 10175515.153 10 0 59531 25200.00000 0 21595465.081 -4350737.846 12952238.900 10 0 59531 26100.00000 0 20012138.005 -3603319.857 15478742.688 10 0 59531 27000.00000 0 18244111.171 -2581443.877 17706238.165 10 0 59531 27900.00000 0 16354355.534 -1280339.109 19591684.198 10 0 59531 28800.00000 0 14407441.813 292184.011 21098604.796 10 0 59531 29700.00000 0 12466932.150 2115802.267 22197785.205 10 0 59531 30600.00000 0 10592830.681 4158272.363 22867833.802 10 0 59531 31500.00000 0 8839197.256 6376525.514 23095599.531 10 0 59531 32400.00000 0 7252021.944 8718221.223 22876436.889 10 0 59531 33300.00000 0 5867447.653 11123698.851 22214312.741 10 0 59531 34200.00000 0 4710414.397 13528248.956 21121751.724 10 0 59531 35100.00000 0 3793781.792 15864612.961 19619619.542 10 0 59531 36000.00000 0 3117967.115 18065609.621 17736746.217 10 0 59531 36900.00000 0 2671115.245 20066780.558 15509394.209 10 0 59531 37800.00000 0 2429794.799 21808945.450 12980579.340 10 0 59531 38700.00000 0 2360192.691 23240560.083 10199255.444 10 0 59531 39600.00000 0 2419758.151 24319777.633 7219376.862 10 0 59531 40500.00000 0 2559227.654 25016125.172 4098855.778 10 0 59531 41400.00000 0 2724945.419 25311722.894 898434.138 10 0 59531 42300.00000 0 2861380.687 25201992.467 -2319507.514 10 0 59531 43200.00000 0 2913733.808 24695822.528 -5492180.196 10 0 59531 44100.00000 0 2830518.573 23815182.560 -8557630.050 10 0 59531 45000.00000 0 2566008.718 22594200.273 -11455968.984 10 0 59531 45900.00000 0 2082441.975 21077740.998 -14130566.134 10 0 59531 46800.00000 0 1351885.314 19319549.354 -16529174.653 10 0 59531 47700.00000 0 357679.747 17380032.585 -18604969.685 10 0 59531 48600.00000 0 -904598.648 15323780.477 -20317475.617 10 0 59531 49500.00000 0 -2426703.725 13216927.998 -21633363.370 10 0 59531 50400.00000 0 -4187829.492 11124473.345 -22527101.530 10 0 59531 51300.00000 0 -6155261.169 9107665.438 -22981448.708 10 0 59531 52200.00000 0 -8285539.401 7221571.342 -22987778.080 10 0 59531 53100.00000 0 -10526087.887 5512925.742 -22546228.834 10 0 59531 54000.00000 0 -12817235.214 4018351.871 -21665682.987 10 0 59531 54900.00000 0 -15094545.170 2763026.802 -20363569.630 10 0 59531 55800.00000 0 -17291357.125 1759844.779 -18665502.115 10 0 59531 56700.00000 0 -19341429.709 1009110.715 -16604756.958 10 0 59531 57600.00000 0 -21181577.245 498773.435 -14221606.109 10 0 59531 58500.00000 0 -22754189.152 205185.578 -11562517.009 10 0 59531 59400.00000 0 -24009528.057 94354.994 -8679237.062 10 0 59531 60300.00000 0 -24907712.049 123632.215 -5627781.119 10 0 59531 61200.00000 0 -25420300.055 243760.773 -2467342.181 10 0 59531 62100.00000 0 -25531416.167 401202.485 740853.407 10 0 59531 63000.00000 0 -25238368.064 540638.908 3934724.334 10 0 59531 63900.00000 0 -24551735.641 607543.512 7052523.915 10 0 59531 64800.00000 0 -23494927.818 550716.663 10034018.861 10 0 59531 65700.00000 0 -22103227.176 324677.568 12821635.669 10 0 59531 66600.00000 0 -20422362.822 -108186.348 15361553.911 10 0 59531 67500.00000 0 -18506670.888 -775801.959 17604727.028 10 0 59531 68400.00000 0 -16416918.435 -1695000.405 19507812.659 10 0 59531 69300.00000 0 -14217880.028 -2870573.374 21033996.185 10 0 59531 70200.00000 0 -11975765.894 -4294835.647 22153693.086 10 0 59531 71100.00000 0 -9755606.445 -5947713.380 22845117.682 10 0 59531 72000.00000 0 -7618699.753 -7797356.324 23094707.875 10 0 59531 72900.00000 0 -5620226.027 -9801251.008 22897397.788 10 0 59531 73800.00000 0 -3807126.626 -11907791.525 22256732.465 10 0 59531 74700.00000 0 -2216334.825 -14058245.621 21184821.237 10 0 59531 75600.00000 0 -873431.555 -16189037.344 19702128.966 10 0 59531 76500.00000 0 208217.677 -18234253.878 17837107.032 10 0 59531 77400.00000 0 1027807.790 -20128274.065 15625668.887 10 0 59531 78300.00000 0 1596905.504 -21808410.183 13110517.930 10 0 59531 79200.00000 0 1938733.650 -23217452.870 10340338.495 10 0 59531 80100.00000 0 2086957.165 -24306012.008 7368863.922 10 0 59531 81000.00000 0 2084020.985 -25034553.970 4253838.575 10 0 59531 81900.00000 0 1979109.517 -25375047.584 1055893.423 10 0 59531 82800.00000 0 1825814.196 -25312147.116 -2162642.622 10 0 59531 83700.00000 0 1679608.849 -24843859.982 -5338971.538 10 0 59531 84600.00000 0 1595241.594 -23981668.733 -8411069.750 10 0 59531 85500.00000 0 1624156.126 -22750100.462 -11318920.003 99